Regional Weather Roundup
Issued by NWS Columbia, SC

Home | Current Version | Previous Version | Text Only | Print | Product List | Glossary On
Versions: 1 2 3 4 5 6 7 8 9 10 11 12 13 14 15 16 17 18 19 20 21 22 23 24 25 26 27 28 29 30 31 32 33 34 35 36 37 38 39 40 41 42 43 44 45 46 47 48 49 50
000
ASUS42 KCAE 071110
RWRCAE
REGIONAL WEATHER ROUNDUP
NATIONAL WEATHER SERVICE COLUMBIA SC
700 AM EDT TUE JUL 07 2015

NOTE: "FAIR" INDICATES FEW OR NO CLOUDS BELOW 12,000 FEET WITH NO
SIGNIFICANT WEATHER AND/OR OBSTRUCTIONS TO VISIBILITY.

NOT ALL STATIONS ARE QUALITY CONTROLLED BY THE NATIONAL
WEATHER SERVICE. USE DATA WITH CAUTION...ESPECIALLY
DEWPOINT OBSERVATIONS.

SCZ001>056-GAZ040-063>065-077-071200-
...UPSTATE SOUTH CAROLINA...

CITY           SKY/WX    TMP DP  RH WIND       PRES   REMARKS
ANDERSON       FOG       68  67  96 CALM      30.14R VSB 1/4
SPARTANBURG      N/A     70  68  94 CALM      30.12R
CLEMSON        CLEAR     70  65  84 NW3       30.15R
GREENVILLE     CLEAR     69  66  90 CALM      30.14R
GREENWOOD      CLEAR     71  69  93 SW3       30.14R FOG
GREER          CLEAR     67  66  97 CALM      30.13R
ROCK HILL      CLEAR     70  69  97 S5        30.12R FOG
CHESTER        SUNNY     72  70  94 CALM      30.13R FOG
LAURENS        SUNNY     70  70 100 CALM      30.12R FOG


...CENTRAL SOUTH CAROLINA...

CITY           SKY/WX    TMP DP  RH WIND       PRES   REMARKS
COLUMBIA APT   PTCLDY    73  70  90 S3        30.11R
COLUMBIA OWENS CLEAR     73  71  93 CALM      30.13R
DARLINGTON     CLEAR     73  70  88 S5        30.13R
FLORENCE       CLEAR     73  72  96 S3        30.13R
MCENTIRE ANGB  PTCLDY    71  70  97 CALM      30.12S FOG
ORANGEBURG     CLEAR     71  69  93 CALM      30.13R FOG
SUMTER SHAW    CLEAR     73  71  95 S3        30.11R
NEWBERRY       SUNNY     66  64  94 S3        30.15R
BARNWELL       FAIR      73  73 100 CALM      30.14R
MANNING        FAIR      72  72 100 SW3       30.13R
CAMDEN         FAIR      73  72  94 CALM      30.13R FOG
LANCASTER      SUNNY     70  70 100 CALM      30.12R
WINNSBORO      SUNNY     70  70 100 SE3       30.13R


...EASTERN AND COASTAL SOUTH CAROLINA...

CITY           SKY/WX    TMP DP  RH WIND       PRES   REMARKS
MYRTLE BEACH   CLEAR     75  70  83 CALM      30.15R
N MYRTLE BCH   CLEAR     76  73  91 SW6       30.14R
CONWAY         FAIR      70 N/A N/A CALM      30.14R HAZE
MARION         FAIR      72  72 100 CALM      30.13R FOG
HARTSVILLE     FAIR      70  70 100 CALM      30.12R
FLORENCE       CLEAR     73  72  96 S3        30.13R
DARLINGTON     CLEAR     73  70  88 S5        30.13R
CHARLESTON APT PTCLDY    75  72  90 CALM      30.14R
MOUNT PLEASANT LGT RAIN  73  72  94 CALM      30.14R
WALTERBORO     PTSUNNY   72  70  94 CALM      30.14R
BEAUFORT       MOCLDY    75  72  90 CALM      30.14R


...EASTERN GEORGIA...

CITY           SKY/WX    TMP DP  RH WIND       PRES   REMARKS
AUGUSTA BUSH F CLEAR     70  69  97 S3        30.11S
AUGUSTA DANIEL CLEAR     74  70  87 CALM      30.13R
THOMSON        CLEAR     72  72 100 CALM      30.17R
WASHINGTON     FAIR      72  72 100 W3        30.14R FOG
CLAXTON        FAIR      72  72 100 CALM      30.14R FOG
SYLVANIA       SUNNY     74  74 100 CALM      30.14R
SAVANNAH       PTCLDY    73  70  90 CALM      30.14R


...SOUTHERN NORTH CAROLINA...

CITY           SKY/WX    TMP DP  RH WIND       PRES   REMARKS
CHARLOTTE      CLEAR     72  68  87 CALM      30.12R
MONROE         CLEAR     71  68  90 SW3       30.12R
WADESBORO      SUNNY     72  70  92 CALM      30.11R
ROCKINGHAM     SUNNY     72  71  97 CALM      30.12R FOG
ASHEVILLE      FOG       60  58  92 S5        30.21R VSB 1/2

$$



USA.gov is the U.S. government's official web portal to all federal, state and local government web resources and services.